Dayton, OH

1:40 AM EST on November 20, 2019 (GMT -0500)
Cox-Dayton International

Weather History for KDAY - October, 2019

Change the Weather History Date:

Tuesday, October 22, 2019

  Actual Average Record
Temperature  
Mean Temperature 55 °F 52 °F  
Max Temperature 62 °F 62 °F 82 °F (1920)
Min Temperature 48 °F 42 °F 26 °F (1976)
Degree Days  
Heating Degree Days 10 13  
Month to date heating degree days 144 224  
Since 1 July heating degree days 144 314  
Cooling Degree Days 0 0  
Month to date cooling degree days 48 10  
Year to date cooling degree days 1358 891  
Growing Degree Days 5 (Base 50)    
Moisture  
Dew Point 43 °F    
Average Humidity 63    
Maximum Humidity 87    
Minimum Humidity 44    
Precipitation  
Precipitation 0.00 in 0.09 in 1.26 in (1912)
Month to date precipitation 1.22 2.09  
Year to date precipitation 35.96 33.70  
Sea Level Pressure  
Sea Level Pressure 29.80 in    
Wind  
Wind Speed 13 mph ()    
Max Wind Speed 29 mph    
Max Gust Speed 37 mph    
Visibility 10.0 miles    
Events      
T = Trace of Precipitation, MM = Missing Value Source: Averaged Metar Reports

Daily Weather History Graph

Daily Weather History Graph

Search for Another Location

Airport or City:

Astronomy

Oct. 22, 2019 Rise Set
Actual Time 7:54 AM EDT 6:47 PM EDT
Civil Twilight 7:26 AM EDT 7:15 PM EDT
Nautical Twilight 6:55 AM EDT 7:46 PM EDT
Astronomical Twilight 6:24 AM EDT 8:17 PM EDT
Moon 1:03 AM EDT (10/22) 3:55 PM EDT (10/22)
Length of Visible Light 11h 48m
Length of Day
10h 53m
Last Quarter, 37% of the Moon is Illuminated
Oct 22
Last Quarter
Oct 27
New
Nov 4
First Quarter
Nov 12
Full
Nov 19
Last Quarter

Hourly Weather History & Observations

Time (EDT) Temp. Dew Point Humidity Pressure Visibility Wind Dir Wind Speed Gust Speed Precip Events Conditions
12:23 AM - - N/A% 29.76 in 10.0 mi SSW 15.0 mph - N/A   Overcast
12:56 AM 62.1 °F 55.9 °F 80% 29.75 in 10.0 mi South 15.0 mph - N/A   Overcast
1:03 AM 61.0 °F 55.9 °F 83% 29.76 in 10.0 mi SSW 11.5 mph - N/A   Overcast
1:56 AM 61.0 °F 55.9 °F 83% 29.76 in 10.0 mi SSW 12.7 mph - N/A   Mostly Cloudy
2:56 AM 59.0 °F 55.0 °F 87% 29.76 in 10.0 mi SSW 11.5 mph - N/A   Mostly Cloudy
3:56 AM 57.0 °F 46.0 °F 67% 29.75 in 10.0 mi West 17.3 mph 24.2 mph N/A   Scattered Clouds
4:06 AM 55.9 °F 44.1 °F 64% 29.76 in 10.0 mi West 12.7 mph - N/A   Scattered Clouds
4:56 AM 53.1 °F 43.0 °F 69% 29.73 in 10.0 mi SSW 4.6 mph - N/A   Scattered Clouds
5:56 AM 52.0 °F 43.0 °F 71% 29.76 in 10.0 mi South 8.1 mph - N/A   Mostly Cloudy
6:56 AM 52.0 °F 44.1 °F 74% 29.75 in 10.0 mi South 8.1 mph - N/A   Scattered Clouds
8:56 AM 55.0 °F 48.0 °F 77% 29.76 in 10.0 mi SW 15.0 mph - N/A   Partly Cloudy
9:56 AM 55.9 °F 44.1 °F 64% 29.78 in 10.0 mi WSW 21.9 mph 27.6 mph N/A   Partly Cloudy
10:56 AM 57.0 °F 42.1 °F 57% 29.78 in 10.0 mi WSW 19.6 mph 28.8 mph N/A   Scattered Clouds
11:56 AM 57.9 °F 41.0 °F 53% 29.78 in 10.0 mi WSW 21.9 mph 32.2 mph N/A   Mostly Cloudy
12:56 PM 60.1 °F 41.0 °F 49% 29.78 in 10.0 mi SW 21.9 mph 36.8 mph N/A   Mostly Cloudy
1:56 PM 60.1 °F 39.9 °F 47% 29.77 in 10.0 mi SW 21.9 mph 31.1 mph N/A   Mostly Cloudy
2:56 PM 57.9 °F 39.0 °F 49% 29.78 in 10.0 mi WSW 24.2 mph - N/A   Mostly Cloudy
3:56 PM 59.0 °F 37.9 °F 46% 29.79 in 10.0 mi WSW 25.3 mph 29.9 mph N/A   Mostly Cloudy
4:56 PM 59.0 °F 37.9 °F 46% 29.82 in 10.0 mi WSW 21.9 mph 32.2 mph N/A   Mostly Cloudy
5:56 PM 57.0 °F 37.9 °F 49% 29.83 in 10.0 mi WSW 16.1 mph - N/A   Mostly Cloudy
6:56 PM 55.9 °F 39.0 °F 53% 29.85 in 10.0 mi WSW 11.5 mph - N/A   Mostly Cloudy
7:56 PM 55.0 °F 39.0 °F 55% 29.87 in 10.0 mi WSW 11.5 mph - N/A   Mostly Cloudy
8:56 PM 53.1 °F 39.9 °F 61% 29.90 in 10.0 mi West 9.2 mph - N/A   Scattered Clouds
9:56 PM 51.1 °F 39.0 °F 63% 29.91 in 10.0 mi SW 6.9 mph - N/A   Scattered Clouds
10:56 PM 51.1 °F 39.0 °F 63% 29.93 in 10.0 mi SSW 10.4 mph - N/A   Scattered Clouds
11:56 PM 50.0 °F 39.0 °F 66% 29.93 in 10.0 mi SW 10.4 mph - N/A   Partly Cloudy